sat.trackr.live / text

‹ back to catalog

STARLINK-32783

NORAD 62606 · 2025-008V

PAYLOAD ACTIVE UNKNOWN

§ Identity

Operator
Country
US
Launch date
2025-01-13
Launch site
AFETR
Launch vehicle
Mass (kg)
RCS (m²)

Purposes: comms

External: N2YO · Heavens-Above · Gunter

§ Orbital elements

Epoch: 2026-09-21T01:20:40.051104Z

Period
94.27 min
Inclination
42.9999°
Eccentricity
0.0001038
Mean motion
15.27596562 rev/d
Perigee alt
482.3 km
Apogee alt
483.7 km
Semi-major
6,861.1 km
B*
3.7801e-4
RAAN
254.5509°
Arg perigee
247.0397°
Mean anomaly
113.0346°
Rev number
9,544

§ Raw data

STARLINK-327831 62606U 25008V   26264.05601911  .00010160  00000+0  37801-3 0  99972 62606  42.9999 254.5509 0001038 247.0397 113.0346 15.27596562 95446

JSON: /api/v1/satellites/62606 · /tle

For live sub-satellite position, see the globe view (requires WebGL).

§ Visibility from observer

Set your observer location to see the next 7 days of passes ≥ 10°. The values pass through the URL so the page stays shareable.

No JS? Fill the form by hand. The geolocation button needs JavaScript.